sat.trackr.live / text

‹ back to catalog

ONEWEB-0504

NORAD 54122 · 2022-138K

PAYLOAD ACTIVE UNKNOWN

§ Identity

Operator
Country
UK
Launch date
2022-10-22
Launch site
SRILR
Launch vehicle
Mass (kg)
RCS (m²)

Purposes: comms

External: N2YO · Heavens-Above · Gunter

§ Orbital elements

Epoch: 2026-05-25T03:44:19.200192Z

Period
109.11 min
Inclination
87.9158°
Eccentricity
0.0001820
Mean motion
13.19725782 rev/d
Perigee alt
1,184.4 km
Apogee alt
1,187.1 km
Semi-major
7,563.9 km
B*
1.6612e-4
RAAN
309.5555°
Arg perigee
85.7277°
Mean anomaly
274.4063°
Rev number
17,379

§ Raw data

ONEWEB-05041 54122U 22138K   26145.15577778  .00000079  00000+0  16612-3 0  99992 54122  87.9158 309.5555 0001820  85.7277 274.4063 13.19725782173791

JSON: /api/v1/satellites/54122 · /tle

For live sub-satellite position, see the globe view (requires WebGL).

§ Visibility from observer

Set your observer location to see the next 7 days of passes ≥ 10°. The values pass through the URL so the page stays shareable.

No JS? Fill the form by hand. The geolocation button needs JavaScript.